Beatrice, NE

7:56 PM CST on February 07, 2016 (GMT -0600)
Beatrice Municipal

Weather History for KBIE - January, 2011

Change the Weather History Date:

Thursday, January 13, 2011

  Actual Average Record
Temperature  
Mean Temperature 8 °F -  
Max Temperature 24 °F 35 °F 58 °F (1980)
Min Temperature -7 °F 12 °F -11 °F (1964)
Degree Days  
Heating Degree Days 56    
Moisture  
Dew Point 4 °F    
Average Humidity 78    
Maximum Humidity 86    
Minimum Humidity 67    
Precipitation  
Precipitation 0.00 in - - ()
Sea Level Pressure  
Sea Level Pressure 30.32 in    
Wind  
Wind Speed 7 mph (SSW)    
Max Wind Speed 20 mph    
Max Gust Speed 24 mph    
Visibility 10 miles    
Events      
Averages and records for this station are not official NWS values.
T = Trace of Precipitation, MM = Missing Value Source: NWS Daily Summary

Daily Weather History Graph

Daily Weather History Graph

Search for Another Location

Airport or City:

Trip Planner

Search our weather history database for the weather conditions in past years. The results will help you decide how hot, cold, wet, or windy it might be!

Date:

Astronomy

Jan. 13, 2011 Rise Set
Actual Time 7:48 AM CST 5:23 PM CST
Civil Twilight 7:18 AM CST 5:53 PM CST
Nautical Twilight 6:44 AM CST 6:26 PM CST
Astronomical Twilight 6:12 AM CST 6:59 PM CST
Moon 12:06 PM CST (1/13) 1:48 AM CST (1/13)
Length of Visible Light 10h 34m
Length of Day
9h 34m
Waxing Gibbous, 62% of the Moon is Illuminated
Jan 13
Waxing Gibbous
Jan 19
Full
Jan 26
Last Quarter
Feb 2
New
Feb 11
First Quarter

Hourly Weather History & Observations

Time (CST) Temp. Windchill Dew Point Humidity Pressure Visibility Wind Dir Wind Speed Gust Speed Precip Events Conditions
12:10 AM -5.4 °F -14.1 °F -8.9 °F 85% 30.52 in 10.0 mi South 3.5 mph - N/A   Clear
12:30 AM -4.9 °F - -8.5 °F 84% 30.52 in 10.0 mi Calm Calm - N/A   Clear
12:50 AM -6.9 °F - -10.8 °F 83% 30.51 in 10.0 mi Calm Calm - N/A   Clear
1:10 AM -7.4 °F - -11.2 °F 84% 30.50 in 10.0 mi Calm Calm - N/A   Clear
1:30 AM -6.9 °F - -10.7 °F 84% 30.50 in 10.0 mi Calm Calm - N/A   Clear
1:50 AM -6.9 °F - -10.7 °F 84% 30.49 in 10.0 mi Calm Calm - N/A   Clear
2:10 AM -6.5 °F -15.3 °F -10.3 °F 84% 30.49 in 10.0 mi SSE 3.5 mph - N/A   Clear
2:30 AM -5.3 °F -16.0 °F -9.0 °F 84% 30.49 in 10.0 mi SSE 4.6 mph - N/A   Clear
2:50 AM -5.1 °F -13.6 °F -8.5 °F 85% 30.48 in 10.0 mi SSE 3.5 mph - N/A   Clear
3:10 AM -5.8 °F -14.5 °F -9.4 °F 84% 30.47 in 10.0 mi SSE 3.5 mph - N/A   Clear
3:30 AM -3.6 °F -14.1 °F -7.4 °F 84% 30.46 in 10.0 mi SE 4.6 mph - N/A   Clear
3:50 AM -3.1 °F -13.5 °F -6.3 °F 86% 30.46 in 10.0 mi South 4.6 mph - N/A   Clear
4:10 AM -3.6 °F -12.0 °F -7.2 °F 85% 30.44 in 10.0 mi SSE 3.5 mph - N/A   Clear
4:30 AM -0.6 °F -14.9 °F -3.8 °F 86% 30.43 in 10.0 mi South 8.1 mph - N/A   Clear
4:50 AM 1.2 °F -11.5 °F -2.2 °F 86% 30.42 in 10.0 mi South 6.9 mph - N/A   Clear
5:10 AM 2.1 °F -12.6 °F -1.3 °F 86% 30.40 in 10.0 mi South 9.2 mph - N/A   Clear
5:30 AM 2.5 °F -12.2 °F -0.9 °F 86% 30.38 in 10.0 mi South 9.2 mph - N/A   Clear
5:50 AM 4.5 °F -11.5 °F 1.0 °F 86% 30.37 in 10.0 mi South 11.5 mph - N/A   Clear
6:10 AM 5.5 °F -10.9 °F 2.1 °F 86% 30.35 in 10.0 mi South 12.7 mph 17.3 mph N/A   Clear
6:30 AM 5.7 °F -10.7 °F 2.1 °F 85% 30.35 in 10.0 mi South 12.7 mph 17.3 mph N/A   Clear
6:50 AM 5.9 °F -11.8 °F 1.9 °F 84% 30.33 in 10.0 mi South 15.0 mph - N/A   Clear
7:10 AM 6.8 °F -8.6 °F 2.3 °F 82% 30.34 in 10.0 mi South 11.5 mph - N/A   Clear
7:30 AM 7.2 °F -8.1 °F 2.3 °F 80% 30.33 in 10.0 mi South 11.5 mph - N/A   Clear
7:50 AM 7.7 °F -8.9 °F 3.0 °F 81% 30.33 in 10.0 mi South 13.8 mph - N/A   Clear
8:10 AM 8.4 °F -6.5 °F 3.2 °F 79% 30.33 in 10.0 mi South 11.5 mph - N/A   Clear
8:30 AM 9.1 °F -6.4 °F 3.6 °F 78% 30.32 in 10.0 mi South 12.7 mph - N/A   Clear
8:50 AM 9.5 °F -5.2 °F 3.7 °F 77% 30.33 in 10.0 mi South 11.5 mph - N/A   Clear
9:10 AM 9.9 °F -4.0 °F 3.9 °F 77% 30.33 in 10.0 mi South 10.4 mph - N/A   Clear
9:30 AM 11.1 °F -3.9 °F 4.6 °F 75% 30.32 in 10.0 mi South 12.7 mph - N/A   Clear
9:50 AM 12.7 °F -4.6 °F 5.4 °F 72% 30.31 in 10.0 mi South 18.4 mph 23.0 mph N/A   Clear
10:10 AM 13.5 °F -3.2 °F 5.9 °F 72% 30.30 in 10.0 mi South 17.3 mph - N/A   Clear
10:30 AM 14.7 °F -0.5 °F 7.2 °F 72% 30.30 in 10.0 mi SSW 15.0 mph - N/A   Clear
10:50 AM 15.8 °F 0.3 °F 7.7 °F 70% 30.29 in 10.0 mi SSW 16.1 mph 23.0 mph N/A   Mostly Cloudy
11:10 AM 16.3 °F 1.6 °F 8.4 °F 71% 30.28 in 10.0 mi SSW 15.0 mph - N/A   Mostly Cloudy
11:30 AM 17.4 °F 2.4 °F 9.5 °F 71% 30.27 in 10.0 mi SW 16.1 mph 19.6 mph N/A   Scattered Clouds
11:50 AM 17.6 °F 1.7 °F 9.3 °F 70% 30.23 in 10.0 mi SSW 18.4 mph - N/A   Clear
12:10 PM 18.5 °F 2.4 °F 10.4 °F 71% 30.20 in 10.0 mi SSW 19.6 mph 24.2 mph N/A   Clear
12:30 PM 18.9 °F 3.3 °F 10.8 °F 71% 30.21 in 10.0 mi SSW 18.4 mph - N/A   Clear
12:50 PM 19.9 °F 5.7 °F 11.5 °F 70% 30.21 in 10.0 mi SW 16.1 mph - N/A   Clear
1:10 PM 20.8 °F 8.4 °F 12.6 °F 70% 30.20 in 10.0 mi SSW 12.7 mph - N/A   Clear
1:30 PM 21.4 °F 9.1 °F 12.9 °F 70% 30.19 in 10.0 mi SW 12.7 mph - N/A   Clear
1:50 PM 22.8 °F 10.9 °F 14.0 °F 69% 30.18 in 10.0 mi SW 12.7 mph 18.4 mph N/A   Clear
2:10 PM 22.8 °F 12.2 °F 14.4 °F 70% 30.18 in 10.0 mi SW 10.4 mph - N/A   Clear
2:30 PM 23.7 °F 13.3 °F 14.4 °F 67% 30.18 in 10.0 mi SW 10.4 mph - N/A   Clear
2:50 PM 24.3 °F 12.7 °F 14.9 °F 68% 30.18 in 10.0 mi SW 12.7 mph - N/A   Clear
3:10 PM 24.4 °F 12.4 °F 15.4 °F 69% 30.19 in 10.0 mi SW 13.8 mph 17.3 mph N/A   Clear
3:30 PM 24.6 °F 14.4 °F 15.6 °F 69% 30.20 in 10.0 mi SW 10.4 mph - N/A   Clear
3:50 PM 24.8 °F 16.1 °F 16.3 °F 70% 30.20 in 10.0 mi SW 8.1 mph - N/A   Clear
4:10 PM 24.8 °F 16.1 °F 16.5 °F 71% 30.20 in 10.0 mi SW 8.1 mph - N/A   Clear
4:30 PM 24.8 °F 16.9 °F 16.7 °F 71% 30.20 in 10.0 mi SSW 6.9 mph - N/A   Clear
4:50 PM 24.6 °F 17.7 °F 16.5 °F 71% 30.20 in 10.0 mi SW 5.8 mph - N/A   Clear
5:10 PM 23.0 °F 14.7 °F 16.0 °F 74% 30.20 in 10.0 mi SW 6.9 mph - N/A   Clear
5:30 PM 20.5 °F 14.0 °F 14.2 °F 77% 30.20 in 10.0 mi WSW 4.6 mph - N/A   Clear
5:50 PM 18.9 °F - 12.9 °F 78% 30.20 in 10.0 mi Calm Calm - N/A   Clear
6:10 PM 19.4 °F 14.3 °F 14.4 °F 81% 30.20 in 10.0 mi SW 3.5 mph - N/A   Clear
6:30 PM 16.9 °F 7.4 °F 12.0 °F 81% 30.19 in 10.0 mi SSW 6.9 mph - N/A   Clear
6:50 PM 15.4 °F - 11.7 °F 85% 30.19 in 10.0 mi Calm Calm - N/A   Clear
7:10 PM 17.1 °F 10.0 °F 12.9 °F 84% 30.19 in 10.0 mi South 4.6 mph - N/A   Clear
7:30 PM 16.7 °F 9.6 °F 13.1 °F 86% 30.19 in 10.0 mi South 4.6 mph - N/A   Clear
7:50 PM 15.8 °F 8.6 °F 12.2 °F 86% 30.19 in 10.0 mi South 4.6 mph - N/A   Clear
8:10 PM 15.8 °F 10.2 °F 12.4 °F 86% 30.20 in 10.0 mi SSW 3.5 mph - N/A   Clear
8:30 PM 14.5 °F - 11.3 °F 87% 30.20 in 10.0 mi Calm Calm - N/A   Clear
8:50 PM 13.3 °F - 10.2 °F 88% 30.20 in 10.0 mi Calm Calm - N/A   Clear
9:10 PM 13.3 °F - 11.1 °F 91% 30.20 in 10.0 mi Calm Calm - N/A   Clear
9:30 PM 12.7 °F - 10.6 °F 91% 30.20 in 10.0 mi Calm Calm - N/A   Clear
9:50 PM 11.3 °F - 8.8 °F 90% 30.20 in 10.0 mi Calm Calm - N/A   Clear
10:10 PM 10.8 °F - 8.6 °F 91% 30.20 in 7.0 mi Calm Calm - N/A   Clear
10:30 PM 10.2 °F - 7.3 °F 88% 30.20 in 10.0 mi Calm Calm - N/A   Clear
10:50 PM 10.2 °F - 7.5 °F 89% 30.20 in 7.0 mi Calm Calm - N/A   Clear
11:10 PM 9.3 °F - 7.3 °F 92% 30.20 in 7.0 mi Calm Calm - N/A   Clear
11:30 PM 9.9 °F - 7.9 °F 92% 30.20 in 7.0 mi Calm Calm - N/A   Clear
11:50 PM 7.7 °F - 5.4 °F 90% 30.20 in 7.0 mi Calm Calm - N/A   Clear